CAL915 RCTP-VHHH

Flight info

Callsign CAL915
Flight time 1h 26m
Altitude 40000
Route CHALI1C CHALI T3 MKG A1 ELATO V522 ABBEY
Aircraft A359/H-SDE2E3GHIJ1J3J4J5LM1ORWXYZ/LB1D1

Departure

Time 2026-05-05 09:20
Airport Taiwan Taoyuan International Airport (RCTP)

Arrival

Time 2026-05-05 10:47
Airport Hong Kong International Airport (VHHH)
Time Latitude Longitude Altitude Speed Heading
2026-05-05 09:01 25.07806 121.22918 107 ft 0 kts 139°
2026-05-05 09:12 25.07812 121.22913 105 ft 4 kts 139°
2026-05-05 09:13 25.07832 121.22894 104 ft 4 kts 139°
2026-05-05 09:13 25.07853 121.22874 104 ft 4 kts 139°
2026-05-05 09:13 25.07870 121.22858 104 ft 3 kts 140°
2026-05-05 09:13 25.07887 121.22850 106 ft 4 kts 212°
2026-05-05 09:14 25.07905 121.22869 106 ft 4 kts 229°
2026-05-05 09:14 25.07920 121.22888 105 ft 1 kts 229°
2026-05-05 09:14 25.07921 121.22889 105 ft 0 kts 229°
2026-05-05 09:16 25.07916 121.22883 105 ft 4 kts 229°
2026-05-05 09:16 25.07876 121.22831 103 ft 13 kts 229°
2026-05-05 09:16 25.07830 121.22773 104 ft 16 kts 229°
2026-05-05 09:17 25.07754 121.22677 105 ft 17 kts 229°
2026-05-05 09:17 25.07671 121.22572 106 ft 19 kts 229°
2026-05-05 09:17 25.07581 121.22456 107 ft 21 kts 229°
2026-05-05 09:17 25.07483 121.22332 106 ft 22 kts 229°
2026-05-05 09:18 25.07378 121.22197 104 ft 24 kts 230°
2026-05-05 09:18 25.07267 121.22053 105 ft 25 kts 230°
2026-05-05 09:18 25.07158 121.21913 105 ft 23 kts 230°
2026-05-05 09:18 25.07107 121.21818 106 ft 12 kts 276°
2026-05-05 09:19 25.07165 121.21748 105 ft 14 kts 318°
2026-05-05 09:19 25.07240 121.21674 105 ft 15 kts 319°
2026-05-05 09:19 25.07308 121.21633 106 ft 9 kts
2026-05-05 09:19 25.07363 121.21691 105 ft 19 kts 49°
2026-05-05 09:20 25.07601 121.21993 103 ft 89 kts 49°
2026-05-05 09:20 25.08159 121.22694 105 ft 152 kts 49°
2026-05-05 09:20 25.08907 121.23623 640 ft 164 kts 51°
2026-05-05 09:20 25.09641 121.24546 1445 ft 160 kts 52°
2026-05-05 09:21 25.10412 121.25549 1821 ft 185 kts 52°
2026-05-05 09:21 25.11310 121.26696 2200 ft 207 kts 50°
2026-05-05 09:21 25.12481 121.27727 2807 ft 224 kts 32°
2026-05-05 09:21 25.14026 121.28260 3247 ft 249 kts
2026-05-05 09:22 25.15709 121.27690 3819 ft 262 kts 322°
2026-05-05 09:22 25.16772 121.26109 4756 ft 258 kts 285°
2026-05-05 09:22 25.16998 121.24175 5795 ft 254 kts 274°
2026-05-05 09:22 25.17042 121.22228 6768 ft 254 kts 265°
2026-05-05 09:23 25.16869 121.20266 7582 ft 259 kts 262°
2026-05-05 09:23 25.16635 121.18289 8506 ft 260 kts 261°
2026-05-05 09:23 25.16385 121.16332 9500 ft 261 kts 261°
2026-05-05 09:23 25.16123 121.14345 10374 ft 265 kts 261°
2026-05-05 09:24 25.15840 121.12259 10801 ft 285 kts 261°
2026-05-05 09:24 25.15531 121.10015 11152 ft 307 kts 261°
2026-05-05 09:24 25.15065 121.07660 11597 ft 321 kts 249°
2026-05-05 09:24 25.13854 121.05576 12324 ft 329 kts 228°
2026-05-05 09:25 25.11949 121.04125 13106 ft 340 kts 208°
2026-05-05 09:25 25.09643 121.03405 13836 ft 350 kts 195°
2026-05-05 09:25 25.07203 121.03071 14468 ft 355 kts 190°
2026-05-05 09:25 25.04735 121.02776 15116 ft 358 kts 190°
2026-05-05 09:26 25.02252 121.02478 15749 ft 361 kts 190°
2026-05-05 09:26 24.99748 121.02177 16398 ft 363 kts 190°
2026-05-05 09:26 24.97231 121.01876 17026 ft 366 kts 190°
2026-05-05 09:26 24.94688 121.01569 17662 ft 369 kts 190°
2026-05-05 09:27 24.92122 121.01258 18295 ft 372 kts 190°
2026-05-05 09:27 24.89544 121.00943 18831 ft 374 kts 190°
2026-05-05 09:27 24.86975 121.00633 19369 ft 377 kts 190°
2026-05-05 09:27 24.84357 121.00319 19905 ft 380 kts 190°
2026-05-05 09:28 24.81724 120.99974 20442 ft 381 kts 193°
2026-05-05 09:28 24.79232 120.99059 20966 ft 377 kts 211°
2026-05-05 09:28 24.77164 120.97304 21483 ft 377 kts 228°
2026-05-05 09:28 24.75752 120.94877 22006 ft 380 kts 246°
2026-05-05 09:29 24.74984 120.92093 22608 ft 382 kts 254°
2026-05-05 09:29 24.74203 120.89293 23127 ft 384 kts 247°
2026-05-05 09:29 24.73123 120.86595 23631 ft 387 kts 244°
2026-05-05 09:29 24.71921 120.83930 24061 ft 389 kts 242°
2026-05-05 09:30 24.70655 120.81293 24528 ft 392 kts 241°
2026-05-05 09:30 24.69350 120.78649 25047 ft 394 kts 241°
2026-05-05 09:30 24.68033 120.75998 25532 ft 396 kts 241°
2026-05-05 09:30 24.66714 120.73335 26031 ft 398 kts 241°
2026-05-05 09:31 24.65407 120.70683 26512 ft 401 kts 242°
2026-05-05 09:31 24.64079 120.67975 26984 ft 404 kts 243°
2026-05-05 09:31 24.62746 120.65250 27484 ft 405 kts 243°
2026-05-05 09:31 24.61409 120.62511 27982 ft 408 kts 243°
2026-05-05 09:32 24.60065 120.59755 28466 ft 410 kts 243°
2026-05-05 09:32 24.58713 120.56983 28950 ft 412 kts 243°
2026-05-05 09:32 24.57352 120.54198 29417 ft 415 kts 243°
2026-05-05 09:32 24.55983 120.51397 29880 ft 417 kts 243°
2026-05-05 09:33 24.54606 120.48581 30283 ft 419 kts 244°
2026-05-05 09:33 24.53222 120.45756 30711 ft 420 kts 244°
2026-05-05 09:33 24.51837 120.42930 31110 ft 422 kts 244°
2026-05-05 09:33 24.50442 120.40088 31501 ft 423 kts 244°
2026-05-05 09:34 24.49042 120.37234 31828 ft 426 kts 244°
2026-05-05 09:34 24.47618 120.34380 32153 ft 428 kts 242°
2026-05-05 09:34 24.45947 120.31648 32527 ft 432 kts 236°
2026-05-05 09:34 24.43942 120.29174 32894 ft 436 kts 229°
2026-05-05 09:35 24.41692 120.26989 33287 ft 440 kts 224°
2026-05-05 09:35 24.36705 120.22954 33817 ft 450 kts 220°
2026-05-05 09:35 24.34131 120.21020 34297 ft 448 kts 220°
2026-05-05 09:36 24.31561 120.19100 34728 ft 445 kts 220°
2026-05-05 09:36 24.29014 120.17181 35042 ft 444 kts 220°
2026-05-05 09:36 24.26482 120.15251 35341 ft 444 kts 220°
2026-05-05 09:36 24.23957 120.13310 35647 ft 443 kts 221°
2026-05-05 09:37 24.21441 120.11367 35936 ft 442 kts 221°
2026-05-05 09:37 24.18925 120.09416 36164 ft 444 kts 221°
2026-05-05 09:37 24.16403 120.07462 36423 ft 444 kts 221°
2026-05-05 09:37 24.13882 120.05511 36740 ft 443 kts 221°
2026-05-05 09:38 24.11363 120.03564 37033 ft 443 kts 221°
2026-05-05 09:38 24.08847 120.01619 37320 ft 442 kts 221°
2026-05-05 09:38 24.06333 119.99678 37604 ft 442 kts 220°
2026-05-05 09:38 24.03855 119.97764 37865 ft 442 kts 220°
2026-05-05 09:39 24.01346 119.95828 38149 ft 441 kts 220°
2026-05-05 09:39 23.98840 119.93895 38436 ft 440 kts 220°
2026-05-05 09:39 23.96336 119.91964 38566 ft 443 kts 221°
2026-05-05 09:39 23.93808 119.90015 38651 ft 446 kts 221°
2026-05-05 09:40 23.91271 119.88062 38854 ft 445 kts 220°
2026-05-05 09:40 23.88733 119.86112 39068 ft 445 kts 220°
2026-05-05 09:40 23.86208 119.84173 39262 ft 444 kts 220°
2026-05-05 09:40 23.83678 119.82230 39465 ft 444 kts 221°
2026-05-05 09:41 23.81154 119.80293 39724 ft 443 kts 221°
2026-05-05 09:41 23.78633 119.78358 39918 ft 442 kts 221°
2026-05-05 09:41 23.73591 119.74489 39970 ft 443 kts 220°
2026-05-05 09:42 23.68523 119.70603 39993 ft 446 kts 220°
2026-05-05 09:42 23.63442 119.66709 39993 ft 447 kts 221°
2026-05-05 09:43 23.58920 119.62196 39991 ft 437 kts 234°
2026-05-05 09:43 23.55465 119.56809 39993 ft 433 kts 240°
2026-05-05 09:44 23.52250 119.51247 39992 ft 433 kts 241°
2026-05-05 09:44 23.49064 119.45678 39990 ft 434 kts 241°
2026-05-05 09:45 23.45841 119.40091 39991 ft 436 kts 241°
2026-05-05 09:45 23.42620 119.34546 39995 ft 436 kts 241°
2026-05-05 09:46 23.39373 119.28971 39993 ft 436 kts 241°
2026-05-05 09:46 23.36123 119.23395 39995 ft 436 kts 241°
2026-05-05 09:47 23.32878 119.17832 39996 ft 435 kts 241°
2026-05-05 09:47 23.29640 119.12286 39986 ft 435 kts 241°
2026-05-05 09:48 23.26381 119.06708 39993 ft 437 kts 241°
2026-05-05 09:48 23.23117 119.01129 39999 ft 438 kts 241°
2026-05-05 09:49 23.19846 118.95546 39997 ft 437 kts 241°
2026-05-05 09:49 23.16578 118.89974 39996 ft 437 kts 241°
2026-05-05 09:50 23.13308 118.84405 39996 ft 437 kts 241°
2026-05-05 09:50 23.10060 118.78877 39996 ft 437 kts 241°
2026-05-05 09:51 23.06780 118.73300 39996 ft 440 kts 241°
2026-05-05 09:51 23.03480 118.67697 39997 ft 441 kts 241°
2026-05-05 09:52 23.00174 118.62091 39985 ft 440 kts 241°
2026-05-05 09:52 22.96876 118.56505 39986 ft 439 kts 241°
2026-05-05 09:53 22.93579 118.50930 40003 ft 439 kts 241°
2026-05-05 09:53 22.90265 118.45361 40004 ft 439 kts 241°
2026-05-05 09:54 22.86946 118.39793 39987 ft 440 kts 241°
2026-05-05 09:54 22.83606 118.34189 39994 ft 443 kts 241°
2026-05-05 09:55 22.80263 118.28590 39999 ft 442 kts 241°
2026-05-05 09:55 22.76916 118.22987 39994 ft 442 kts 241°
2026-05-05 09:56 22.73575 118.17401 39997 ft 442 kts 241°
2026-05-05 09:56 22.70252 118.11849 39994 ft 442 kts 241°
2026-05-05 09:57 22.66905 118.06263 40000 ft 442 kts 241°
2026-05-05 09:57 22.63560 118.00688 39994 ft 442 kts 241°
2026-05-05 09:58 22.60211 117.95112 39995 ft 442 kts 241°
2026-05-05 09:58 22.56882 117.89525 39995 ft 442 kts 241°
2026-05-05 09:59 22.53566 117.83931 39992 ft 442 kts 241°
2026-05-05 09:59 22.50244 117.78339 39987 ft 442 kts 241°
2026-05-05 10:00 22.46941 117.72791 39994 ft 442 kts 241°
2026-05-05 10:00 22.43611 117.67206 39986 ft 443 kts 241°
2026-05-05 10:01 22.40264 117.61598 39990 ft 445 kts 241°
2026-05-05 10:01 22.36905 117.55973 39990 ft 445 kts 241°
2026-05-05 10:02 22.34251 117.50002 39989 ft 438 kts 255°
2026-05-05 10:02 22.33218 117.43567 39992 ft 434 kts 268°
2026-05-05 10:03 22.33030 117.37051 39990 ft 434 kts 270°
2026-05-05 10:03 22.32955 117.30523 39993 ft 435 kts 270°
2026-05-05 10:04 22.32866 117.23996 39994 ft 435 kts 270°
2026-05-05 10:04 22.32750 117.17469 39993 ft 435 kts 269°
2026-05-05 10:05 22.32623 117.10947 39995 ft 433 kts 269°
2026-05-05 10:05 22.32495 117.04489 39992 ft 433 kts 269°
2026-05-05 10:06 22.32364 116.97985 39994 ft 433 kts 269°
2026-05-05 10:06 22.32230 116.91482 39992 ft 433 kts 269°
2026-05-05 10:07 22.32095 116.84981 39993 ft 433 kts 269°
2026-05-05 10:07 22.31956 116.78481 39988 ft 434 kts 270°
2026-05-05 10:08 22.31839 116.73056 39998 ft 435 kts 270°
2026-05-05 10:08 22.31695 116.66517 39998 ft 435 kts 270°
2026-05-05 10:09 22.31549 116.59978 39998 ft 435 kts 269°
2026-05-05 10:09 22.31400 116.53445 39952 ft 436 kts 270°
2026-05-05 10:10 22.31324 116.50177 39726 ft 435 kts 270°
2026-05-05 10:10 22.31248 116.46902 39493 ft 436 kts 269°
2026-05-05 10:10 22.31171 116.43630 39264 ft 436 kts 269°
2026-05-05 10:10 22.31093 116.40352 39034 ft 437 kts 269°
2026-05-05 10:11 22.31015 116.37078 38797 ft 437 kts 269°
2026-05-05 10:11 22.30936 116.33790 38565 ft 438 kts 269°
2026-05-05 10:11 22.30856 116.30503 38295 ft 438 kts 269°
2026-05-05 10:11 22.30775 116.27201 38027 ft 439 kts 269°
2026-05-05 10:12 22.30694 116.23915 37765 ft 439 kts 269°
2026-05-05 10:12 22.30613 116.20665 37448 ft 438 kts 269°
2026-05-05 10:12 22.30530 116.17386 36870 ft 435 kts 269°
2026-05-05 10:12 22.30448 116.14123 36202 ft 434 kts 269°
2026-05-05 10:13 22.30365 116.10864 35517 ft 434 kts 269°
2026-05-05 10:13 22.30281 116.07606 34866 ft 434 kts 268°
2026-05-05 10:13 22.30197 116.04360 34329 ft 431 kts 268°
2026-05-05 10:13 22.30113 116.01138 33765 ft 428 kts 268°
2026-05-05 10:14 22.30029 115.97950 33209 ft 424 kts 268°
2026-05-05 10:14 22.29944 115.94786 32684 ft 419 kts 268°
2026-05-05 10:14 22.29860 115.91652 32147 ft 416 kts 269°
2026-05-05 10:14 22.29776 115.88547 31618 ft 412 kts 269°
2026-05-05 10:15 22.29692 115.85466 31095 ft 408 kts 269°
2026-05-05 10:15 22.29609 115.82409 30570 ft 406 kts 269°
2026-05-05 10:15 22.29527 115.79377 30080 ft 402 kts 269°
2026-05-05 10:15 22.29448 115.76371 29508 ft 399 kts 269°
2026-05-05 10:16 22.29371 115.73435 29002 ft 394 kts 269°
2026-05-05 10:16 22.29293 115.70489 28474 ft 390 kts 269°
2026-05-05 10:16 22.29216 115.67540 27962 ft 386 kts 269°
2026-05-05 10:16 22.29143 115.64691 27465 ft 383 kts 269°
2026-05-05 10:17 22.29064 115.61827 26963 ft 380 kts 269°
2026-05-05 10:17 22.28985 115.58990 26454 ft 377 kts 269°
2026-05-05 10:17 22.28906 115.56168 25955 ft 374 kts 269°
2026-05-05 10:17 22.28828 115.53369 25433 ft 372 kts 269°
2026-05-05 10:18 22.28750 115.50580 24938 ft 370 kts 269°
2026-05-05 10:18 22.28672 115.47805 24427 ft 369 kts 269°
2026-05-05 10:18 22.28594 115.45039 23917 ft 368 kts 269°
2026-05-05 10:18 22.28516 115.42284 23372 ft 368 kts 269°
2026-05-05 10:19 22.28438 115.39531 22807 ft 366 kts 269°
2026-05-05 10:19 22.28360 115.36794 22287 ft 363 kts 268°
2026-05-05 10:19 22.28281 115.34077 21765 ft 361 kts 268°
2026-05-05 10:19 22.28206 115.31412 21249 ft 359 kts 268°
2026-05-05 10:20 22.28124 115.28729 20731 ft 357 kts 268°
2026-05-05 10:20 22.28041 115.26055 20222 ft 356 kts 268°
2026-05-05 10:20 22.27958 115.23391 19689 ft 355 kts 268°
2026-05-05 10:20 22.27875 115.20728 19177 ft 353 kts 268°
2026-05-05 10:21 22.27793 115.18086 18658 ft 351 kts 268°
2026-05-05 10:21 22.27710 115.15455 18120 ft 349 kts 267°
2026-05-05 10:21 22.27629 115.12848 17568 ft 346 kts 267°
2026-05-05 10:21 22.27547 115.10263 17055 ft 343 kts 267°
2026-05-05 10:22 22.27466 115.07699 16544 ft 341 kts 267°
2026-05-05 10:22 22.27384 115.05144 16036 ft 339 kts 267°
2026-05-05 10:22 22.27304 115.02639 15539 ft 338 kts 267°
2026-05-05 10:22 22.27223 115.00110 15033 ft 337 kts 267°
2026-05-05 10:23 22.27142 114.97588 14525 ft 335 kts 267°
2026-05-05 10:23 22.27060 114.95077 14019 ft 334 kts 267°
2026-05-05 10:23 22.26979 114.92570 13481 ft 333 kts 267°
2026-05-05 10:23 22.26901 114.90089 12978 ft 330 kts 267°
2026-05-05 10:24 22.26819 114.87622 12487 ft 328 kts 267°
2026-05-05 10:24 22.26737 114.85170 12011 ft 325 kts 267°
2026-05-05 10:24 22.26658 114.82784 11853 ft 312 kts 267°
2026-05-05 10:24 22.26544 114.80460 11394 ft 309 kts 263°
2026-05-05 10:25 22.25998 114.78235 10986 ft 307 kts 245°
2026-05-05 10:25 22.24776 114.76351 10849 ft 312 kts 228°
2026-05-05 10:25 22.23220 114.74686 10699 ft 315 kts 225°
2026-05-05 10:25 22.21624 114.73064 10587 ft 316 kts 225°
2026-05-05 10:26 22.20047 114.71460 10429 ft 315 kts 225°
2026-05-05 10:26 22.18452 114.69831 10305 ft 306 kts 225°
2026-05-05 10:26 22.16958 114.68304 10176 ft 293 kts 225°
2026-05-05 10:26 22.15505 114.66816 10037 ft 282 kts 225°
2026-05-05 10:27 22.14101 114.65377 9900 ft 276 kts 225°
2026-05-05 10:27 22.12711 114.63950 9751 ft 277 kts 225°
2026-05-05 10:27 22.11317 114.62519 9625 ft 277 kts 225°
2026-05-05 10:27 22.09920 114.61086 9484 ft 276 kts 225°
2026-05-05 10:28 22.08533 114.59665 9355 ft 274 kts 225°
2026-05-05 10:28 22.07147 114.58244 9250 ft 275 kts 225°
2026-05-05 10:28 22.05762 114.56824 9112 ft 275 kts 225°
2026-05-05 10:28 22.04379 114.55406 9010 ft 274 kts 225°
2026-05-05 10:29 22.03006 114.53977 9009 ft 273 kts 227°
2026-05-05 10:29 22.01925 114.52315 9022 ft 271 kts 244°
2026-05-05 10:29 22.01164 114.50456 9015 ft 271 kts 248°
2026-05-05 10:29 22.00458 114.48578 9011 ft 270 kts 248°
2026-05-05 10:30 21.99755 114.46708 9008 ft 269 kts 248°
2026-05-05 10:30 21.99046 114.44834 9015 ft 271 kts 247°
2026-05-05 10:30 21.98330 114.42954 9015 ft 271 kts 247°
2026-05-05 10:30 21.97612 114.41074 9012 ft 272 kts 247°
2026-05-05 10:31 21.96899 114.39209 9012 ft 273 kts 247°
2026-05-05 10:31 21.96176 114.37321 9013 ft 273 kts 247°
2026-05-05 10:31 21.95451 114.35428 9007 ft 274 kts 247°
2026-05-05 10:31 21.94721 114.33526 9009 ft 274 kts 247°
2026-05-05 10:32 21.93993 114.31628 8895 ft 274 kts 247°
2026-05-05 10:32 21.93269 114.29739 8641 ft 272 kts 247°
2026-05-05 10:32 21.92547 114.27862 8408 ft 272 kts 247°
2026-05-05 10:32 21.91824 114.25980 8153 ft 271 kts 247°
2026-05-05 10:33 21.91104 114.24107 8024 ft 271 kts 247°
2026-05-05 10:33 21.90381 114.22224 8008 ft 273 kts 247°
2026-05-05 10:33 21.89774 114.20292 8005 ft 272 kts 258°
2026-05-05 10:33 21.89843 114.18271 8010 ft 274 kts 284°
2026-05-05 10:34 21.90625 114.16391 8006 ft 277 kts 296°
2026-05-05 10:34 21.91573 114.14585 7889 ft 277 kts 297°
2026-05-05 10:34 21.92528 114.12786 7774 ft 276 kts 297°
2026-05-05 10:34 21.93477 114.10982 7653 ft 277 kts 296°
2026-05-05 10:35 21.94420 114.09176 7532 ft 276 kts 296°
2026-05-05 10:35 21.95354 114.07375 7412 ft 276 kts 296°
2026-05-05 10:35 21.96291 114.05569 7292 ft 276 kts 297°
2026-05-05 10:35 21.97227 114.03760 7180 ft 276 kts 297°
2026-05-05 10:36 21.98162 114.01951 7069 ft 276 kts 297°
2026-05-05 10:36 21.99091 114.00150 6945 ft 270 kts 297°
2026-05-05 10:36 21.99975 113.98441 6831 ft 258 kts 297°
2026-05-05 10:36 22.00834 113.96777 6733 ft 252 kts 297°
2026-05-05 10:37 22.01671 113.95155 6617 ft 242 kts 296°
2026-05-05 10:37 22.02471 113.93604 6503 ft 232 kts 296°
2026-05-05 10:37 22.03246 113.92098 6397 ft 229 kts 296°
2026-05-05 10:37 22.04008 113.90619 6283 ft 222 kts 296°
2026-05-05 10:38 22.04750 113.89177 6072 ft 218 kts 296°
2026-05-05 10:38 22.05477 113.87761 5856 ft 215 kts 296°
2026-05-05 10:38 22.06205 113.86344 5608 ft 216 kts 296°
2026-05-05 10:38 22.06936 113.84923 5367 ft 217 kts 296°
2026-05-05 10:39 22.07664 113.83507 5124 ft 216 kts 296°
2026-05-05 10:39 22.08393 113.82088 4903 ft 216 kts 296°
2026-05-05 10:39 22.09120 113.80674 4745 ft 215 kts 296°
2026-05-05 10:39 22.09845 113.79266 4546 ft 215 kts 296°
2026-05-05 10:40 22.10698 113.77931 4389 ft 219 kts 309°
2026-05-05 10:40 22.11931 113.76946 4282 ft 223 kts 329°
2026-05-05 10:40 22.13331 113.76215 4187 ft 224 kts 334°
2026-05-05 10:40 22.14753 113.75530 4093 ft 224 kts 335°
2026-05-05 10:41 22.16170 113.74845 3976 ft 222 kts 334°
2026-05-05 10:41 22.17571 113.74151 3810 ft 222 kts 334°
2026-05-05 10:41 22.18974 113.73456 3634 ft 221 kts 333°
2026-05-05 10:41 22.20347 113.72776 3472 ft 212 kts 334°
2026-05-05 10:42 22.22984 113.71684 3192 ft 200 kts 356°
2026-05-05 10:42 22.24273 113.72065 3072 ft 196 kts 35°
2026-05-05 10:42 22.25341 113.72965 2941 ft 194 kts 43°
2026-05-05 10:43 22.26351 113.73928 2806 ft 193 kts 44°
2026-05-05 10:43 22.27348 113.74882 2599 ft 190 kts 44°
2026-05-05 10:43 22.28181 113.75965 2360 ft 185 kts 61°
2026-05-05 10:43 22.28640 113.77225 2119 ft 177 kts 76°
2026-05-05 10:44 22.29008 113.78473 1872 ft 172 kts 72°
2026-05-05 10:44 22.29401 113.79656 1664 ft 161 kts 72°
2026-05-05 10:44 22.29766 113.80785 1449 ft 158 kts 71°
2026-05-05 10:44 22.30121 113.81892 1249 ft 155 kts 72°
2026-05-05 10:45 22.30469 113.82978 1042 ft 147 kts 72°
2026-05-05 10:45 22.30788 113.83970 861 ft 135 kts 72°
2026-05-05 10:45 22.31087 113.84903 690 ft 129 kts 70°
2026-05-05 10:45 22.31382 113.85821 515 ft 129 kts 70°
2026-05-05 10:46 22.31680 113.86753 323 ft 135 kts 74°
2026-05-05 10:46 22.31989 113.87702 211 ft 134 kts 71°
2026-05-05 10:46 22.32298 113.88644 42 ft 129 kts 73°
2026-05-05 10:46 22.32557 113.89469 38 ft 95 kts 71°
2026-05-05 10:47 22.32721 113.89970 38 ft 47 kts 71°
2026-05-05 10:47 22.32801 113.90216 39 ft 32 kts 71°
2026-05-05 10:47 22.32818 113.90445 39 ft 31 kts 99°
2026-05-05 10:47 22.32785 113.90624 39 ft 24 kts 101°
2026-05-05 10:48 22.32804 113.90796 39 ft 24 kts 69°
2026-05-05 10:48 22.32865 113.90977 39 ft 26 kts 72°
2026-05-05 10:48 22.32923 113.91166 39 ft 27 kts 71°
2026-05-05 10:48 22.32975 113.91327 39 ft 22 kts 71°
2026-05-05 10:49 22.33026 113.91488 39 ft 24 kts 71°
2026-05-05 10:49 22.33081 113.91661 39 ft 25 kts 71°
2026-05-05 10:49 22.33140 113.91846 39 ft 24 kts 71°
2026-05-05 10:49 22.33179 113.91966 39 ft 14 kts 71°
2026-05-05 10:50 22.33136 113.92043 39 ft 14 kts 161°
2026-05-05 10:50 22.33023 113.92086 39 ft 21 kts 160°
2026-05-05 10:50 22.32878 113.92142 39 ft 23 kts 161°
2026-05-05 10:50 22.32719 113.92199 39 ft 25 kts 161°
2026-05-05 10:51 22.32548 113.92263 39 ft 27 kts 161°
2026-05-05 10:51 22.32364 113.92330 38 ft 29 kts 161°
2026-05-05 10:51 22.32211 113.92388 38 ft 20 kts 160°
2026-05-05 10:51 22.32124 113.92443 38 ft 8 kts 102°
2026-05-05 10:52 22.32142 113.92505 38 ft 13 kts 69°
2026-05-05 10:52 22.32183 113.92623 38 ft 17 kts 71°
2026-05-05 10:52 22.32160 113.92699 38 ft 11 kts 153°
2026-05-05 10:52 22.32068 113.92734 40 ft 15 kts 161°
2026-05-05 10:53 22.31960 113.92774 40 ft 18 kts 160°
2026-05-05 10:53 22.31839 113.92824 38 ft 18 kts 155°
2026-05-05 10:53 22.31720 113.92875 38 ft 19 kts 161°
2026-05-05 10:53 22.31611 113.92914 38 ft 15 kts 162°
2026-05-05 10:54 22.31537 113.92921 38 ft 8 kts 214°
2026-05-05 10:54 22.31510 113.92858 38 ft 8 kts 246°
2026-05-05 10:54 22.31466 113.92847 38 ft 8 kts 167°
2026-05-05 10:54 22.31426 113.92859 38 ft 5 kts 162°
2026-05-05 10:55 22.31408 113.92866 38 ft 0 kts 161°